Wind_Speed
4 4 4 4 4 5 5 6 6 6 6 7 7 8 8 7 6 4 4 4 4 6 8 10 11 10 10 10 10 8 6 4 6 7 6 4 6 8 9 10 10 8 8 9 5 2 3 3 0 1 2 2 1 0 1 1 1 3 3 5 6 5 3 3 5 3 1 2 3 5 6 5 3 5 3 3 4 2 4 3 2 3 3 5 5 5 9 13
3 3 3 4 4 5 5 6 6 7 7 8 9 9 8 7 6 4 3 3 4 6 8 9 11 10 10 10 10 8 3 4 8 9 7 7 7 9 9 9 8 7 8 7 4 2 3 2 1 1 1 2 0 0 2 0 1 3 2 4 6 3 1 1 2 2 2 2 3 4 4 4 1 4 4 4 4 3 4 4 4 5 4 4 5 8 11 12
3 3 3 4 4 5 5 6 6 7 8 9 9 9 9 8 6 4 4 4 5 7 8 10 11 11 11 11 10 7 1 4 4 5 6 7 7 8 9 9 8 7 7 5 2 1 1 2 2 2 1 1 1 1 2 1 1 1 1 6 5 1 1 1 2 1 1 1 2 3 2 3 1 2 3 3 2 3 4 1 2 5 4 6 7 8 11 11
4 4 4 4 4 5 6 6 7 7 8 8 8 9 9 8 6 5 4 5 5 7 9 10 11 11 12 12 10 7 1 4 2 3 5 7 8 9 9 9 8 7 5 2 1 1 2 3 2 0 2 2 1 1 3 1 0 2 3 5 1 1 2 1 1 1 1 2 0 4 3 3 2 1 2 2 2 3 1 4 3 4 3 4 8 9 10 11
5 5 5 5 5 6 6 7 7 8 8 9 9 9 8 8 7 5 5 5 6 7 9 11 11 11 11 11 10 7 2 3 1 2 5 7 8 9 8 8 9 7 4 1 1 2 2 2 2 1 2 3 2 3 3 2 1 2 3 2 2 1 2 1 1 1 1 0 1 4 3 2 3 2 1 2 2 1 3 7 7 6 8 1 7 9 9 9
7 6 6 6 6 6 7 8 8 9 9 9 9 9 8 8 7 6 5 6 7 8 9 10 11 10 11 11 9 6 3 1 2 3 6 8 8 8 7 7 8 5 3 1 0 2 2 2 3 3 2 2 4 3 2 3 1 4 3 1 2 2 1 1 2 2 1 2 3 3 1 3 4 2 1 1 4 7 7 9 8 6 7 3 5 8 8 8
7 7 6 6 6 7 8 9 9 10 10 10 10 9 9 8 7 7 6 7 7 8 9 9 10 10 10 10 6 3 1 2 3 4 6 8 8 8 6 6 6 4 2 1 1 2 2 2 3 3 3 2 4 3 2 2 2 5 4 2 2 2 2 0 2 2 2 2 1 2 2 3 3 1 3 4 8 10 9 7 5 3 4 4 7 8 8 10
7 7 6 6 6 7 8 9 10 10 11 10 10 9 9 8 7 7 6 7 7 7 8 8 8 9 9 7 2 1 2 1 3 6 7 8 9 7 5 5 5 3 1 0 0 2 2 3 3 3 3 2 2 3 2 2 4 6 4 2 2 2 2 1 1 3 2 1 1 3 3 2 2 1 3 6 11 10 8 6 4 5 8 9 9 9 10 11
7 7 6 6 7 8 9 10 11 11 11 10 10 9 9 8 8 7 7 6 6 6 6 6 7 8 8 4 0 0 1 1 4 7 8 9 9 7 4 3 3 2 0 2 2 2 2 2 3 3 3 1 3 3 2 4 3 4 2 1 2 2 2 1 2 3 2 1 2 5 3 3 3 0 3 8 12 8 7 8 8 9 11 11 10 10 11 12
8 7 7 7 8 9 10 11 12 12 11 10 10 10 9 9 8 8 7 6 6 5 5 5 7 8 5 1 1 0 1 0 4 9 11 10 9 6 3 2 2 2 0 1 1 1 2 2 3 2 1 2 3 2 2 3 0 1 2 1 1 1 2 1 2 2 2 1 4 6 3 4 2 1 1 8 11 6 8 10 10 11 13 12 11 11 13 14
8 7 6 7 8 10 12 13 13 13 12 11 10 10 10 10 9 8 7 6 5 5 4 5 6 5 2 1 1 2 1 1 4 12 14 11 7 3 1 3 3 1 0 1 1 1 1 3 6 3 1 2 4 2 1 2 1 1 1 2 2 1 1 2 2 3 2 2 5 4 3 4 2 1 3 8 7 4 10 12 12 13 13 12 13 12 13 15
7 7 6 8 10 12 13 14 14 13 13 12 11 12 12 10 9 7 6 5 5 5 4 5 5 2 2 1 3 2 1 2 3 14 15 9 7 3 2 3 5 2 2 1 1 1 1 6 7 2 0 3 4 2 2 2 1 1 0 3 2 2 2 2 1 2 3 3 5 4 3 4 3 4 7 6 3 6 11 12 12 12 12 12 13 12 13 16
7 6 7 9 12 13 14 14 14 14 14 13 14 15 13 9 6 5 4 3 3 4 5 5 4 1 2 1 2 1 1 0 6 15 12 8 11 6 5 4 8 4 4 3 2 1 2 6 5 1 1 1 2 1 3 4 0 2 2 2 2 4 3 2 1 2 4 2 4 4 3 4 6 7 9 5 3 7 12 11 11 11 11 11 12 12 13 17
6 6 8 11 13 14 15 14 14 16 16 15 17 17 12 8 5 2 2 2 3 4 4 3 1 2 1 1 1 1 1 3 10 16 12 13 16 6 3 7 11 6 5 4 2 1 3 7 5 4 2 2 2 4 3 3 1 2 1 1 3 4 1 4 2 2 5 2 3 5 4 3 7 9 10 5 2 8 12 11 11 10 11 11 11 13 13 16
6 7 10 13 14 15 15 14 13 16 18 17 18 15 9 9 7 4 2 2 2 2 1 1 2 2 2 2 1 0 2 6 13 16 13 17 17 6 5 8 6 2 3 3 2 4 6 7 4 3 2 1 3 4 2 2 1 1 2 3 2 3 1 4 3 1 2 2 4 6 3 3 7 10 9 5 3 10 13 11 11 12 12 12 12 13 13 16
6 8 12 13 15 15 15 15 13 17 18 18 18 13 9 10 9 8 6 3 2 2 3 2 2 1 1 2 1 1 2 8 14 13 13 18 15 7 8 6 2 2 2 4 5 7 6 4 1 0 1 1 3 3 2 3 3 2 3 4 1 2 2 2 3 2 2 1 4 5 3 3 5 8 8 5 4 11 13 12 12 12 13 12 11 12 12 13
7 9 13 14 15 16 16 15 14 16 18 18 17 10 8 9 9 12 10 5 5 6 5 3 1 1 2 2 2 3 4 11 13 12 15 18 12 7 8 3 2 4 5 5 4 3 1 1 0 1 1 0 1 2 3 5 4 2 2 3 1 2 2 1 2 2 2 2 3 2 1 3 5 7 7 6 5 10 12 11 12 11 11 11 11 12 12 12
8 11 13 14 15 16 16 16 14 16 18 18 15 7 6 6 8 15 16 6 3 3 4 6 4 2 2 4 2 6 11 14 11 11 18 18 10 7 6 3 1 2 5 2 0 1 1 0 1 2 2 1 2 3 5 3 2 2 3 4 3 2 3 3 1 2 2 2 2 2 2 6 6 7 7 6 6 10 11 11 11 12 12 12 11 11 12 12
9 12 14 14 16 15 16 16 14 15 17 16 12 4 5 5 2 10 19 13 3 1 1 4 4 1 2 4 3 11 14 10 5 9 18 20 11 5 4 3 1 2 2 1 1 0 1 1 2 2 2 1 1 3 5 3 2 3 4 5 5 4 4 2 1 3 2 1 1 1 3 6 7 7 7 7 7 10 11 11 10 10 11 11 11 11 11 12
10 13 14 14 15 15 17 15 12 15 16 15 11 3 3 5 1 2 12 12 4 2 2 1 2 1 3 3 6 14 11 3 0 8 20 21 10 3 2 1 1 2 1 1 0 1 1 3 2 2 2 2 3 3 3 2 1 3 3 4 5 5 4 0 3 2 1 2 2 5 6 8 7 7 7 6 8 9 10 10 10 10 10 10 11 12 12 12
10 13 13 14 15 15 16 13 11 14 15 15 12 5 1 2 1 2 3 3 1 1 2 1 0 2 3 3 8 12 5 0 1 6 21 20 7 2 2 2 2 2 1 1 2 1 2 4 1 2 3 3 3 1 1 0 1 2 3 4 4 4 3 1 2 2 1 2 2 6 7 8 6 6 6 5 7 8 8 9 10 11 10 9 11 12 11 10
10 12 12 13 14 14 15 10 10 13 13 15 14 8 4 2 2 1 1 1 2 0 1 1 1 2 3 2 6 8 2 3 2 6 21 19 6 3 4 2 0 1 1 1 2 2 2 1 2 2 2 1 0 1 1 1 1 2 2 3 3 2 2 1 2 1 0 2 2 5 5 6 6 7 7 6 7 7 7 9 9 10 10 9 10 10 10 10
10 12 12 13 13 14 13 8 9 14 13 15 12 8 5 4 4 3 1 1 2 1 1 2 1 2 3 1 7 9 2 3 3 7 19 16 7 4 3 3 2 0 1 2 2 2 2 1 3 2 1 2 1 1 2 2 2 2 2 4 3 1 1 1 1 1 0 2 1 5 4 5 5 7 8 7 7 8 8 10 9 9 9 9 9 9 9 10
11 11 12 13 13 14 13 6 9 13 12 14 12 8 6 4 4 3 1 0 1 1 1 1 0 2 3 2 7 8 1 2 3 6 14 13 6 2 1 3 1 1 1 3 2 0 1 2 2 1 2 2 3 1 1 3 2 2 2 4 3 2 1 2 2 2 1 1 2 5 3 3 4 5 6 6 7 9 8 9 9 8 8 9 9 8 8 8
11 12 13 13 13 15 11 4 8 10 7 9 8 6 5 3 3 3 1 0 1 1 1 1 1 2 4 3 8 7 1 1 1 4 9 9 6 2 1 1 2 2 1 1 1 1 3 3 1 2 1 1 2 1 1 3 3 1 1 2 3 2 2 2 3 4 3 1 3 3 4 1 4 4 5 5 6 8 7 8 8 8 8 8 7 7 7 7
12 12 13 14 13 15 8 2 7 8 3 5 5 2 3 2 2 2 1 1 1 1 2 1 0 4 6 4 7 4 2 1 2 2 5 6 4 1 0 0 0 2 1 1 1 1 2 2 1 2 1 1 1 1 3 3 4 2 1 2 2 1 2 3 3 4 4 2 1 2 5 2 3 5 5 5 6 7 7 7 7 7 6 6 6 6 6 6
12 12 13 14 14 13 6 0 6 6 2 3 3 1 2 2 2 1 1 1 2 2 3 3 2 5 7 5 7 2 1 5 2 3 5 7 4 2 1 3 0 2 2 1 0 1 2 1 1 2 1 1 1 2 3 2 4 2 1 1 1 1 3 3 3 4 3 3 1 2 3 4 2 4 5 5 7 7 7 7 7 6 6 6 6 5 5 5
11 11 12 12 13 12 7 2 4 3 1 1 1 2 3 3 2 1 1 1 1 1 1 2 2 4 6 6 6 3 1 6 3 3 7 7 5 1 1 4 1 2 2 2 2 3 2 3 4 3 2 2 2 2 3 2 3 2 1 1 1 2 2 2 3 3 1 2 2 3 1 4 1 4 4 5 5 6 7 7 7 7 7 6 6 5 5 5
10 9 10 11 10 10 7 5 5 3 2 1 1 2 3 3 1 1 1 1 1 2 1 2 2 4 7 5 3 4 2 3 3 6 8 5 6 3 1 3 1 1 1 2 3 3 2 3 2 3 2 3 2 2 2 2 2 2 2 1 2 1 1 0 2 1 1 2 1 3 0 3 0 4 4 4 4 4 6 7 6 7 7 6 6 5 5 4
8 7 9 9 9 9 5 5 7 4 3 2 1 2 3 2 1 1 2 0 1 1 1 2 3 4 8 5 3 5 4 3 2 6 4 2 4 5 3 1 1 2 0 2 4 2 1 0 1 2 3 2 2 1 1 1 1 1 3 2 2 2 1 1 1 1 2 2 2 3 2 3 1 2 3 2 1 0 3 6 7 7 7 7 6 5 5 4
7 7 9 10 11 10 5 4 6 5 4 1 3 3 2 0 1 2 2 1 1 2 1 3 3 3 7 5 3 6 4 3 4 6 5 2 5 8 4 2 2 1 1 2 3 2 1 1 0 1 2 2 2 1 1 1 2 2 3 3 3 2 2 2 2 2 3 0 3 3 2 3 3 2 3 2 2 2 2 5 8 9 9 7 6 5 4 4
5 6 8 11 13 13 8 4 5 4 3 2 5 2 1 0 2 2 1 2 2 3 3 2 3 4 5 1 2 6 4 3 4 4 4 3 5 8 6 5 4 3 4 4 3 2 2 1 1 0 1 2 3 2 2 3 2 2 2 2 4 3 1 2 1 1 2 1 4 3 2 3 1 4 4 4 4 3 4 4 8 10 9 8 6 5 4 3
4 5 8 11 14 15 12 7 5 3 1 4 4 0 1 2 2 1 2 3 2 2 2 2 3 4 4 3 3 5 2 2 5 3 1 1 3 4 4 6 5 3 3 4 5 5 1 2 1 0 1 2 4 3 2 1 3 3 2 3 5 3 3 3 1 1 2 1 3 2 3 2 3 4 4 5 5 4 2 3 7 9 9 8 6 5 4 3
3 3 6 11 14 18 17 9 4 2 3 5 2 1 4 3 1 1 1 3 2 2 2 1 4 4 1 2 4 4 1 2 4 4 2 2 2 3 3 7 8 3 2 2 2 4 2 1 2 3 2 4 4 4 4 4 3 2 1 3 3 2 3 4 2 2 3 2 0 1 1 2 1 3 3 3 3 4 5 7 8 7 7 6 5 4 2 2
1 1 5 9 15 21 17 9 4 1 4 3 2 3 4 2 1 0 1 2 2 4 3 1 3 3 1 1 1 2 1 2 3 4 4 4 3 3 3 5 8 5 3 3 1 1 3 2 2 2 2 4 3 2 2 3 1 1 1 2 1 2 2 2 1 2 2 3 1 1 1 2 2 3 3 3 4 5 6 7 8 7 6 5 4 3 1 1
1 2 2 8 18 22 15 8 3 3 4 1 4 4 2 1 0 0 1 2 2 4 6 2 2 3 3 2 1 2 0 1 3 3 3 3 1 2 2 2 5 5 4 3 2 1 3 2 2 2 0 2 3 2 2 3 2 0 1 1 2 2 2 2 1 2 1 3 1 1 1 2 3 3 4 3 4 5 5 6 7 7 5 4 2 1 1 1
2 2 1 9 21 21 12 7 3 4 3 2 5 3 1 0 1 1 1 2 1 2 5 2 2 4 3 2 2 4 3 1 3 3 2 1 1 2 2 1 1 3 3 2 2 1 3 5 1 2 0 2 1 2 0 1 3 3 1 2 2 1 1 1 2 1 2 3 1 1 0 1 1 1 3 4 5 5 5 5 5 5 4 2 1 0 2 2
3 2 2 10 23 18 9 7 3 3 3 4 5 3 0 1 1 1 1 1 1 1 2 3 2 2 2 2 2 4 6 4 4 4 2 1 1 1 2 2 1 1 2 3 2 1 2 5 1 1 1 2 1 3 1 2 1 2 2 1 0 2 1 0 2 3 3 4 2 1 1 1 1 2 2 1 3 6 8 6 5 5 3 1 1 2 3 4
3 2 2 12 23 15 8 7 3 3 5 4 3 2 1 1 1 0 1 1 1 1 1 1 1 1 0 2 3 2 3 4 4 3 1 2 2 1 2 2 0 1 2 2 2 1 1 3 1 2 1 1 1 1 1 2 2 2 1 1 1 1 2 2 1 2 3 4 3 1 1 1 3 3 3 5 4 3 7 7 6 4 2 1 2 4 5 5
2 1 1 16 22 9 9 13 8 5 5 3 1 2 1 0 1 1 1 1 1 0 1 1 1 2 1 1 1 1 2 2 2 2 1 2 2 2 3 2 2 3 2 1 1 1 1 2 2 1 1 2 1 3 4 3 2 1 1 3 2 0 1 1 0 0 2 4 3 2 3 1 5 2 3 5 6 2 4 6 4 3 0 2 4 5 6 7
2 1 1 19 19 3 6 13 9 4 3 3 1 2 1 0 1 1 0 1 1 0 1 0 1 1 1 1 1 0 2 2 1 1 1 1 2 2 3 2 2 4 3 1 0 2 1 2 4 5 4 3 3 3 3 3 2 3 4 4 3 1 1 2 1 2 0 3 2 3 5 1 4 2 3 4 4 3 3 3 2 1 2 4 4 6 7 7
3 2 4 18 12 6 6 6 3 2 2 2 2 1 1 0 1 1 1 1 1 0 0 0 0 1 1 2 2 1 2 2 1 1 1 0 2 2 2 2 2 3 3 1 1 2 2 1 3 5 4 4 3 2 1 1 1 2 4 3 1 1 1 3 3 1 0 1 1 2 3 1 3 2 2 3 4 4 4 3 2 2 4 5 6 7 8 7
2 2 6 16 7 5 6 5 1 3 3 1 0 1 1 1 0 0 0 0 1 0 0 0 0 1 0 1 2 1 1 2 1 1 1 0 1 2 2 1 2 2 1 1 1 0 1 1 2 4 3 1 2 2 2 1 2 1 4 4 2 2 2 2 2 2 2 2 1 2 3 2 4 3 3 4 4 4 3 3 3 4 5 6 8 9 9 8
1 2 5 16 9 3 3 4 2 2 2 1 1 2 1 1 1 1 1 2 2 0 0 1 0 1 0 0 1 2 1 1 1 1 1 1 1 2 2 1 2 2 1 1 2 1 1 1 1 4 3 0 3 2 2 2 1 2 2 2 2 2 1 0 0 0 2 1 1 4 4 2 5 4 3 3 2 1 1 2 3 5 7 8 8 9 9 9
2 1 2 14 18 10 3 1 2 3 2 1 2 2 1 1 1 2 1 1 1 0 1 1 0 1 0 1 1 1 1 1 1 1 1 1 1 2 1 1 2 2 1 1 2 2 2 1 1 3 4 3 3 3 2 2 3 2 2 2 2 2 1 1 1 2 2 1 0 5 4 2 4 5 3 3 1 2 2 3 5 6 8 8 8 9 8 8
1 2 1 6 11 9 3 1 2 3 2 2 2 2 2 1 1 0 1 0 1 0 1 1 1 1 1 1 2 1 0 1 1 2 2 1 1 1 1 1 2 1 2 3 2 1 1 1 1 2 3 4 6 6 3 3 5 4 1 2 1 1 1 2 1 1 1 1 2 3 2 4 2 2 3 2 2 4 5 7 8 8 9 8 9 10 9 7
1 2 1 1 2 3 3 3 3 2 1 0 1 2 2 2 1 1 2 1 0 0 1 0 1 1 2 3 3 1 1 1 1 1 1 1 2 1 1 2 1 3 4 3 1 0 1 1 1 1 5 6 8 8 4 2 5 5 3 1 1 1 0 2 2 2 1 2 3 1 2 4 7 2 2 2 4 6 7 8 9 9 10 10 11 11 10 8
2 2 1 1 1 1 2 3 3 3 3 1 1 1 2 2 2 1 0 0 1 1 1 0 2 3 2 2 2 2 4 4 0 1 0 1 2 3 0 1 0 3 3 0 1 1 1 2 1 0 5 7 7 6 3 1 3 1 1 2 1 0 1 2 1 1 1 3 7 5 3 8 8 2 2 3 5 7 9 9 9 10 11 12 13 11 9 7
2 3 0 2 2 2 1 2 1 2 4 3 1 1 1 2 2 1 1 1 0 1 1 2 3 4 2 1 1 2 3 3 2 1 0 0 2 2 1 0 0 2 3 2 2 1 1 1 2 1 6 5 2 1 1 1 1 1 1 2 1 0 1 1 1 1 1 5 9 9 9 10 6 1 1 4 6 7 8 8 10 11 12 14 13 10 8 7
1 2 1 1 3 3 1 1 0 1 2 2 1 1 0 1 2 1 1 1 1 1 1 3 5 4 1 1 2 1 2 2 4 4 1 0 2 1 0 1 0 3 4 3 2 1 1 2 3 1 5 3 2 1 1 2 2 3 3 1 0 1 1 1 1 1 2 7 8 8 10 8 1 2 3 6 6 7 9 11 12 12 12 13 12 9 8 7
4 3 4 4 3 2 2 1 0 0 2 2 1 1 1 1 1 2 1 1 1 2 2 3 4 2 1 1 2 2 2 2 6 5 2 2 2 0 0 1 1 4 4 2 2 3 3 2 2 0 4 1 2 3 5 2 4 4 3 2 1 1 1 1 1 1 3 8 9 8 7 4 1 1 6 7 7 10 13 13 13 12 12 12 9 8 7 6
5 3 3 4 3 2 2 1 1 1 2 1 1 0 1 1 1 1 1 1 0 1 1 1 1 1 1 1 1 1 2 2 4 3 2 1 1 0 1 1 1 3 2 1 1 1 1 2 1 1 4 1 2 7 5 3 4 2 2 2 1 1 3 3 3 4 5 5 6 6 4 3 3 4 8 10 10 13 13 12 13 13 12 9 6 6 7 7
Wind_Direction
93 87 75 58 40 33 32 25 17 13 14 14 9 5 3 0 357 352 358 360 356 359 356 359 356 353 350 339 339 341 349 44 90 83 71 37 2 350 342 340 340 335 339 345 338 278 191 182 148 76 180 185 341 99 148 50 26 230 224 239 244 238 235 207 209 204 310 328 135 161 196 210 166 163 171 171 194 144 156 177 129 133 78 54 62 95 132 141
77 70 56 39 29 23 15 8 6 9 10 8 4 2 1 357 353 347 346 349 350 352 352 355 355 354 351 340 337 341 359 114 99 75 45 15 358 345 341 341 342 338 337 339 354 337 219 182 119 151 221 210 189 157 195 149 282 234 219 245 246 246 282 310 257 225 255 315 111 145 194 218 236 140 168 206 172 144 200 181 159 186 152 111 93 116 137 144
64 53 39 28 21 12 7 7 8 9 7 5 5 2 0 356 351 346 339 341 341 342 346 348 348 351 351 344 338 344 39 156 115 50 14 1 352 348 347 344 347 343 336 326 353 10 247 138 153 210 227 220 167 160 207 186 243 219 223 248 251 321 315 236 267 277 286 346 124 138 157 208 254 101 178 222 155 173 219 183 170 217 195 156 132 134 146 150
58 46 37 26 20 15 14 13 11 8 4 3 2 358 358 354 348 342 336 336 334 336 340 340 341 344 349 348 338 344 30 169 125 3 347 355 350 354 352 350 355 349 347 335 351 76 121 126 134 155 217 222 120 184 218 168 262 168 213 258 307 58 273 177 207 277 53 329 305 125 132 195 173 122 203 206 207 198 166 24 7 321 327 158 150 150 154 155
60 53 44 36 30 25 20 16 10 4 359 356 352 352 353 351 345 335 329 325 323 327 330 333 337 340 347 346 336 334 284 201 90 351 344 354 350 354 353 356 359 356 9 5 22 105 132 144 144 112 218 226 160 196 204 115 71 195 206 285 67 183 265 78 118 146 118 359 113 142 158 145 130 154 230 238 262 352 19 351 337 337 344 334 156 153 151 147
59 53 45 39 32 25 20 14 6 359 353 347 344 344 343 344 342 329 319 313 312 317 323 330 336 339 345 344 339 336 295 264 37 339 344 349 345 350 349 354 355 2 16 339 123 171 169 162 200 185 196 220 195 209 171 123 216 239 212 140 154 210 272 49 125 141 162 179 160 166 131 115 152 162 65 10 2 2 345 330 318 320 340 350 135 137 135 127
51 45 39 33 26 21 15 8 1 353 347 341 338 336 333 333 332 328 316 308 309 313 321 327 337 344 342 342 346 5 30 64 6 333 342 342 339 343 344 347 346 355 351 284 217 208 201 211 227 190 190 220 206 201 134 135 209 246 242 153 164 198 209 46 120 157 204 211 149 120 134 157 179 154 92 44 13 359 347 346 332 338 35 78 104 108 109 107
38 34 30 26 21 15 9 2 355 348 344 340 337 333 327 321 317 320 315 308 307 311 320 323 339 350 343 345 351 53 71 69 344 338 341 340 338 336 337 341 338 343 302 314 331 207 197 223 217 183 215 235 193 172 143 189 199 224 243 139 147 190 196 156 141 177 188 218 78 147 165 122 71 86 114 42 11 1 6 24 44 71 80 84 89 91 97 100
29 24 20 21 20 12 6 358 352 349 348 344 342 337 327 319 309 307 309 311 307 309 319 317 335 348 342 350 254 207 80 22 350 351 344 342 339 333 329 332 343 344 259 62 76 182 199 222 190 198 227 136 181 164 163 224 217 212 221 133 170 183 161 158 180 179 180 184 152 175 174 91 61 259 124 45 14 9 38 51 64 73 76 75 79 85 92 98
24 18 19 23 17 10 3 357 355 353 351 349 346 340 330 322 311 302 300 306 309 308 313 307 324 343 336 303 248 11 105 26 7 2 349 343 337 328 318 324 360 9 181 88 93 178 228 210 156 178 193 117 175 151 164 217 269 140 155 161 197 101 95 160 201 161 167 204 189 198 162 106 96 223 136 34 13 19 63 62 62 69 72 73 76 78 82 87
21 20 25 22 12 6 1 358 358 356 354 350 345 338 330 321 313 304 294 295 302 304 308 306 321 341 327 243 355 56 106 204 6 1 350 342 338 320 309 1 7 349 168 91 167 186 263 168 141 139 192 152 156 146 198 192 62 90 151 218 177 87 101 168 203 166 182 189 184 195 117 119 139 104 3 9 10 47 76 70 66 72 74 75 76 75 76 77
19 23 25 16 8 4 1 360 360 359 355 348 343 335 328 318 308 300 289 280 285 294 298 302 321 338 185 122 50 71 136 198 344 352 349 346 346 309 233 6 359 307 229 280 248 234 212 168 161 152 129 166 159 160 180 145 71 98 202 261 202 217 214 171 173 163 210 183 155 177 150 144 123 55 13 15 59 84 83 79 74 77 77 77 77 76 75 74
19 24 20 11 6 3 2 1 2 3 358 350 346 340 335 327 310 294 287 282 280 289 297 308 322 239 193 99 70 123 157 246 335 346 351 1 356 320 232 309 333 295 229 250 237 242 212 174 174 95 68 194 163 116 138 124 91 154 154 286 265 246 220 132 72 147 190 167 140 201 228 151 105 47 21 38 132 97 84 83 82 83 80 79 79 79 76 72
24 26 15 8 6 4 3 2 4 6 1 353 349 348 352 355 349 323 302 309 295 294 302 326 24 178 180 96 137 154 59 355 346 352 357 360 357 345 246 305 314 285 218 218 210 197 159 154 142 109 77 342 105 132 148 132 188 187 158 237 251 258 198 93 55 167 180 152 165 220 263 149 101 37 20 38 139 104 89 88 88 87 86 85 84 83 80 75
27 19 11 8 6 5 4 1 2 6 3 355 353 358 10 19 29 51 32 349 308 318 24 93 124 162 137 112 157 279 23 358 354 357 359 353 352 349 323 323 319 280 198 187 157 115 126 143 140 121 95 11 147 162 190 172 178 184 240 229 196 239 180 99 72 356 192 129 177 219 263 122 90 28 20 39 105 107 98 96 93 92 92 91 89 87 86 83
24 14 9 6 4 5 4 360 358 3 4 360 358 4 21 31 49 49 27 10 9 96 122 127 154 177 109 102 45 24 25 351 351 359 360 352 348 336 334 343 57 42 133 128 113 108 110 124 91 61 123 180 193 198 233 236 210 169 243 259 208 226 257 112 113 26 329 168 173 227 278 106 77 26 33 55 99 108 103 102 99 97 96 94 95 93 93 90
19 11 6 4 3 5 5 2 359 1 7 5 359 6 27 39 59 40 21 31 74 100 101 48 42 168 83 74 15 10 349 331 341 0 0 355 353 345 347 7 61 46 108 113 101 110 78 79 74 255 136 151 202 206 248 258 244 180 213 255 231 216 265 280 147 69 339 245 181 221 296 86 57 34 52 63 94 106 104 106 102 98 97 95 96 94 93 90
17 9 4 3 3 5 6 5 3 4 10 8 360 10 34 41 69 42 29 41 91 105 79 32 25 152 72 43 3 322 319 318 332 1 359 356 355 353 6 30 38 81 127 125 163 228 316 92 216 235 167 186 190 209 247 277 302 282 266 266 278 223 228 257 243 56 360 256 213 205 126 92 65 53 62 61 84 101 101 103 101 99 98 97 95 93 91 87
14 7 3 3 3 5 6 5 7 7 10 10 5 17 35 26 79 43 35 40 58 62 50 10 9 251 318 7 328 317 318 311 328 6 359 354 349 351 19 25 47 154 184 203 166 173 320 194 215 243 205 215 223 246 272 322 342 284 277 271 277 269 248 248 72 36 355 254 211 158 109 90 69 60 65 68 84 97 100 102 100 100 99 97 95 92 91 86
9 5 3 2 2 3 4 6 9 8 10 15 15 22 29 17 302 20 34 38 50 38 21 5 14 309 320 341 327 335 336 303 7 9 0 354 340 337 37 15 149 177 230 270 207 82 273 248 228 265 321 322 316 295 291 337 300 253 253 254 262 268 272 99 93 52 308 247 105 98 91 77 65 62 66 77 92 95 101 104 102 103 101 98 97 94 93 89
2 2 2 1 1 2 2 4 10 11 14 19 30 56 65 4 337 333 19 35 128 333 10 53 253 280 310 297 328 345 345 278 129 10 3 358 329 296 14 11 201 196 35 296 279 118 242 261 243 16 346 322 321 303 225 137 205 233 250 263 266 261 270 78 84 47 269 247 127 121 97 71 63 64 68 75 87 88 95 107 107 106 104 99 101 99 98 97
357 359 1 1 0 360 359 5 14 14 16 26 47 81 105 149 171 214 265 112 125 329 11 60 236 284 291 255 346 348 315 359 9 3 2 0 358 2 357 4 9 283 17 266 250 221 228 249 59 25 351 302 64 145 223 215 209 234 246 264 270 274 287 110 105 75 305 295 160 150 110 77 75 69 65 62 77 81 85 102 108 109 109 106 106 106 106 108
352 356 359 359 358 357 358 9 13 9 21 42 64 98 116 127 141 158 197 109 94 28 28 36 360 343 344 94 8 349 358 28 346 359 2 359 16 22 341 11 39 268 357 346 310 281 264 79 57 24 194 223 208 159 240 242 225 231 240 265 271 9 316 227 95 84 121 356 114 155 128 100 104 87 72 65 82 93 87 92 96 99 106 106 108 111 113 113
350 352 356 356 357 357 356 5 10 13 38 60 74 100 128 136 127 134 161 99 80 59 59 34 247 356 360 13 353 347 73 64 317 348 1 360 5 331 333 30 342 235 45 5 354 7 12 52 52 314 201 241 259 208 251 266 263 216 224 273 288 7 306 278 360 333 197 93 131 171 167 131 130 109 91 87 96 102 99 99 95 91 97 102 106 104 105 109
348 349 352 353 356 357 354 5 17 20 51 62 65 97 133 147 150 157 164 130 106 101 117 151 161 34 357 331 357 357 185 91 346 330 352 5 356 307 57 59 291 353 76 333 337 122 64 53 347 274 195 230 270 287 8 299 296 228 170 322 325 349 328 298 333 308 265 183 149 217 258 161 125 118 110 116 112 107 112 112 106 103 106 109 111 107 103 105
347 347 349 351 354 357 357 32 15 14 62 53 40 100 149 148 160 173 225 146 106 19 358 357 110 14 0 346 357 349 210 60 58 1 2 15 3 295 359 332 253 27 49 215 35 101 60 69 257 292 235 232 269 76 41 318 304 319 74 20 2 6 315 299 313 297 291 311 123 258 282 264 137 123 118 128 122 118 126 121 115 119 122 123 121 120 120 116
346 346 348 352 355 2 13 98 6 14 64 33 15 58 147 154 136 163 266 97 70 357 341 350 342 356 359 340 332 318 225 335 335 70 23 4 358 235 316 1 34 40 26 265 23 64 22 6 9 347 285 292 75 68 30 312 308 345 67 3 343 313 298 300 296 270 294 332 187 194 269 268 223 116 123 138 129 132 145 136 130 131 132 134 129 127 129 126
344 346 351 357 1 15 38 60 23 43 54 351 22 71 136 151 134 211 254 103 45 2 353 337 331 354 349 327 341 33 19 326 331 31 2 2 12 256 292 19 8 29 17 287 353 53 27 20 17 344 329 27 48 26 2 282 293 20 90 314 348 330 311 288 271 260 311 305 237 139 177 257 225 109 137 166 156 159 163 153 148 147 143 141 137 135 132 127
346 349 360 6 12 23 40 52 49 60 33 22 133 99 137 150 180 228 91 132 333 28 144 313 339 354 339 322 14 41 5 354 14 341 340 11 22 8 72 36 53 117 350 339 35 45 26 37 356 317 352 31 18 10 358 278 295 79 142 168 114 103 61 308 265 238 169 246 248 82 64 273 214 121 157 188 197 190 168 158 154 152 151 149 148 145 139 137
353 5 12 16 25 21 24 44 38 33 22 21 167 141 146 167 225 160 51 359 335 15 201 351 352 318 338 349 35 25 5 17 346 318 341 28 353 20 91 275 249 163 182 55 68 58 332 203 238 343 15 347 326 8 26 316 5 126 202 222 184 155 123 132 174 167 223 209 80 34 325 296 321 122 133 147 161 225 167 160 156 155 156 155 156 156 151 153
9 26 25 28 32 25 21 22 10 5 9 24 156 144 152 225 49 96 55 354 329 344 345 17 359 326 4 18 12 2 357 350 341 348 15 15 352 19 44 343 304 257 360 48 64 85 119 166 155 41 9 314 285 213 145 187 197 218 249 264 265 218 163 189 165 176 249 192 69 23 326 272 276 86 79 56 54 360 253 186 166 162 161 158 161 162 162 169
25 42 37 34 31 26 23 358 339 344 1 113 145 141 187 160 40 58 357 313 319 355 16 9 344 353 357 334 344 349 337 345 6 23 16 7 27 31 29 17 345 322 13 16 347 3 99 93 20 224 140 351 299 270 147 174 217 268 279 300 309 314 279 256 222 210 272 67 86 51 1 281 245 79 38 353 4 340 287 216 169 158 156 155 158 163 170 184
33 57 41 29 23 17 13 358 336 337 41 146 152 91 91 92 48 55 295 322 358 11 355 302 309 323 310 298 4 348 308 348 356 13 13 346 49 64 64 37 5 328 3 354 331 346 42 125 35 269 131 14 323 336 14 309 333 347 347 340 331 336 320 297 298 280 301 73 112 65 347 281 136 88 6 346 3 3 360 134 136 139 145 146 149 161 176 194
34 79 40 23 13 6 2 358 347 340 147 150 171 29 66 69 49 109 309 326 351 332 326 311 307 304 306 11 3 336 300 62 2 347 350 4 41 50 58 36 20 355 300 319 351 352 321 220 28 17 357 346 355 19 358 317 331 10 352 315 320 356 325 300 308 306 311 332 224 154 300 295 91 71 16 15 38 52 74 95 105 117 129 134 144 158 179 209
8 132 35 18 4 358 357 357 354 169 162 143 47 55 70 68 249 207 343 319 316 321 316 274 304 309 65 43 22 14 349 36 17 360 14 30 32 22 18 15 12 1 319 338 27 317 284 276 53 39 335 341 8 30 329 299 295 123 245 279 324 11 319 282 337 2 311 300 280 183 174 30 61 86 82 86 96 87 89 103 112 119 125 136 151 154 176 266
207 180 39 14 360 356 357 360 6 154 170 127 56 60 63 73 277 213 11 331 332 322 309 304 344 354 10 341 13 68 91 310 349 351 46 55 42 29 21 2 2 1 5 356 335 312 300 289 86 88 52 36 16 338 328 323 320 259 269 348 38 353 293 275 335 104 208 267 282 146 181 112 124 125 113 131 132 112 115 122 122 126 132 143 146 136 322 327
172 185 122 9 358 357 2 9 37 133 135 70 76 78 53 107 29 355 357 335 323 299 309 342 31 358 351 325 333 356 336 297 340 344 35 55 62 46 14 42 40 2 11 337 274 58 304 292 22 75 125 86 36 282 31 12 311 312 8 64 75 269 249 273 289 245 258 276 257 118 269 269 180 134 133 172 181 166 159 149 140 143 152 164 146 11 319 327
157 161 135 6 357 359 7 14 49 106 74 63 80 99 101 49 57 337 346 331 269 275 332 23 27 351 343 322 331 339 327 333 355 356 14 3 36 60 350 18 98 34 9 304 267 84 292 287 10 80 320 47 174 235 172 108 15 16 58 93 321 290 269 267 308 316 312 296 290 136 184 291 40 76 74 111 193 191 181 170 173 178 181 208 304 332 326 326
134 124 135 356 356 2 15 27 63 64 61 73 80 102 75 25 99 45 343 317 259 279 8 43 3 348 34 316 325 331 333 350 346 340 21 4 2 68 21 360 18 26 20 284 280 32 266 277 341 135 210 313 243 269 352 66 76 86 135 113 28 339 323 340 330 305 296 293 304 308 232 136 76 49 11 17 12 212 187 180 190 193 188 317 332 332 331 330
93 117 147 351 353 11 48 52 63 43 55 79 62 93 69 11 121 69 337 303 269 314 10 143 208 318 330 291 301 320 338 344 322 319 15 360 350 67 59 12 328 342 343 253 270 341 248 248 288 269 205 267 344 23 352 356 31 40 34 18 12 352 303 304 246 181 299 292 293 301 293 93 90 34 342 3 3 343 184 183 183 173 353 338 334 333 332 329
44 106 354 347 350 13 54 49 55 30 66 87 61 97 78 213 115 65 181 253 294 313 335 181 170 329 322 301 302 257 305 308 293 295 320 12 12 39 55 35 330 327 319 245 173 348 315 239 281 304 318 329 23 39 341 309 347 12 15 7 354 2 349 294 279 102 343 294 295 298 297 81 95 40 359 11 15 55 121 151 148 108 342 335 331 328 325 324
47 97 340 345 5 84 56 49 57 11 81 81 38 85 38 34 121 49 151 207 284 224 357 93 80 314 261 305 316 269 300 295 269 312 298 51 18 16 45 35 301 299 309 307 64 2 323 267 277 292 308 339 15 46 21 301 298 61 44 30 6 10 347 300 307 24 243 269 80 289 277 123 94 65 50 55 70 87 88 78 45 352 338 329 320 318 320 324
46 113 355 353 12 113 60 67 105 19 70 99 359 109 7 15 143 313 148 213 328 267 282 157 47 304 211 321 302 279 310 274 246 356 342 269 43 55 49 354 281 271 281 287 75 30 276 249 283 286 284 136 141 140 130 180 210 107 60 43 9 351 350 310 319 355 291 245 188 255 254 141 111 105 97 93 98 100 80 43 6 337 324 318 314 316 321 324
43 166 3 9 24 142 79 74 122 63 87 170 122 88 35 36 35 354 360 11 7 359 352 45 39 327 13 359 282 283 332 304 275 58 36 338 51 83 69 355 298 329 8 360 360 344 289 263 298 305 317 155 165 159 164 201 270 2 53 57 34 52 59 343 115 148 261 255 257 273 276 102 113 126 123 117 117 93 56 19 341 320 314 314 316 318 322 322
59 147 310 17 37 66 82 62 129 120 130 127 83 49 11 91 54 360 348 36 26 295 335 29 31 310 269 229 248 267 308 297 312 30 37 341 41 103 90 310 290 337 15 324 315 311 294 295 302 314 333 335 316 319 324 303 316 339 83 75 41 61 91 278 215 226 254 74 207 262 286 48 119 141 129 110 91 335 335 322 314 314 314 314 317 318 319 320
82 64 302 1 33 55 76 26 68 107 133 117 80 29 350 42 76 254 215 130 57 324 314 343 314 265 251 306 302 284 285 232 269 341 347 327 338 81 95 257 260 290 293 275 285 301 261 232 303 296 291 304 309 314 354 359 303 292 360 54 23 26 337 267 246 266 325 8 262 256 340 340 307 144 118 81 9 330 322 318 316 317 316 314 315 316 316 315
106 74 8 313 18 44 65 47 28 59 113 157 66 38 351 339 345 201 187 175 80 267 264 329 19 351 336 340 336 312 307 296 241 301 346 323 313 317 225 222 250 287 281 256 234 302 261 235 55 310 264 266 289 301 329 350 283 289 327 321 277 13 66 225 261 319 357 295 290 38 107 291 305 13 80 4 342 327 318 316 316 316 314 314 316 314 312 310
55 129 278 302 25 25 35 36 32 51 56 48 105 68 349 349 2 350 207 189 170 214 262 155 57 27 348 313 325 334 324 324 329 151 83 345 315 323 332 159 313 317 307 268 45 3 292 289 83 34 274 270 282 298 317 297 271 288 333 295 287 46 208 210 259 295 188 279 305 326 284 277 300 357 73 341 329 317 312 311 311 311 312 316 317 312 310 308
63 110 7 336 64 99 22 2 23 63 51 47 85 80 14 16 16 3 234 260 199 112 326 337 9 12 356 252 278 337 336 335 328 293 129 93 305 326 351 192 155 352 360 33 25 26 239 309 90 238 289 295 310 4 50 305 280 109 59 330 360 267 236 245 259 192 223 279 295 306 293 285 299 35 28 323 313 304 305 308 312 313 315 318 317 312 310 309
140 135 119 54 80 87 40 356 278 77 54 31 47 73 26 319 349 352 225 259 338 41 5 338 341 348 8 189 241 297 348 326 291 279 222 268 298 269 347 321 359 358 8 34 6 336 316 360 82 175 294 318 104 91 346 296 239 133 102 60 73 207 186 189 250 195 246 283 289 294 291 286 279 103 313 309 309 311 315 315 316 316 316 317 315 311 312 312
90 118 139 117 78 7 351 45 327 40 60 13 23 78 262 290 353 316 257 243 319 342 348 337 329 332 70 170 238 289 343 292 279 285 270 272 300 287 311 343 338 332 353 32 339 343 354 349 83 26 310 321 122 341 343 56 134 133 110 97 130 199 216 238 261 208 265 295 296 290 290 301 65 360 308 312 318 321 321 318 316 315 316 314 309 307 312 315
98 96 117 104 78 347 349 40 327 52 70 12 24 119 290 342 53 280 280 127 214 314 336 317 296 312 310 273 277 337 342 299 290 319 326 254 266 26 332 16 16 316 332 56 351 360 357 327 19 357 309 279 25 338 341 124 142 148 126 124 139 280 278 270 269 267 268 284 293 294 306 340 350 316 316 322 322 320 319 316 314 313 312 308 303 304 311 315
Height
830 830 830 830 830 830 829 829 828 828 827 827 826 826 825 824 824 823 823 823 822 822 821 820 819 818 818 817 816 816 815 815 815 815 815 815 815 814 813 813 812 811 811 810 809 808 807 808 807 807 806 807 810 810 812 813 813 812 813 818 816 813 812 809 808 811 809 806 813 822 821 816 817 821 822 822 822 821 824 824 824 826 828 830 831 833 834 835
831 831 831 830 830 830 829 829 828 828 827 826 825 825 824 824 823 823 822 822 821 821 820 820 819 818 817 816 815 815 815 815 814 815 815 815 814 813 813 812 811 810 810 809 808 808 806 806 806 806 806 807 810 810 811 812 813 812 814 817 813 808 809 809 807 808 809 808 812 818 821 818 816 818 820 819 819 822 821 821 824 825 827 831 832 834 835 836
831 831 831 830 830 830 829 829 828 827 827 826 825 824 824 823 822 822 821 821 821 820 819 819 818 818 817 815 815 814 814 814 814 815 815 815 814 813 812 811 811 810 809 808 808 807 806 806 806 805 806 807 810 810 810 811 812 813 816 815 809 808 810 812 813 812 813 813 812 817 822 822 818 818 819 817 819 821 818 818 822 822 823 827 831 834 835 837
831 831 831 830 830 829 829 828 828 827 826 825 825 824 823 822 822 821 821 820 820 819 819 818 818 817 816 814 813 813 813 813 814 816 815 814 814 812 812 811 810 809 808 808 807 807 806 806 805 806 807 808 810 811 810 811 813 813 815 810 808 814 812 812 816 816 819 818 814 818 823 822 819 820 820 818 817 816 817 821 824 824 823 826 830 834 835 837
831 831 831 830 830 829 829 828 827 827 826 825 824 823 823 822 821 821 820 820 819 819 818 818 817 816 815 813 813 812 812 814 816 815 815 814 813 812 811 810 809 809 808 808 807 807 806 806 805 806 807 808 810 811 810 812 814 813 812 810 813 817 811 813 820 820 822 821 819 820 820 819 820 821 821 819 817 819 824 828 829 829 828 828 830 833 835 838
831 831 830 830 830 829 828 828 827 826 825 824 823 823 822 821 821 820 819 819 819 818 818 817 816 815 814 813 812 811 811 816 816 814 814 813 812 812 810 810 809 808 808 807 807 807 806 805 805 806 807 808 809 810 811 814 815 811 809 813 817 817 813 817 821 823 824 820 818 820 818 820 820 822 825 825 825 830 833 833 832 832 832 831 831 834 837 839
831 831 830 830 829 829 828 827 826 825 825 824 823 822 821 820 820 819 819 818 818 817 817 816 815 815 814 812 812 811 811 815 815 814 814 813 812 811 810 810 809 808 808 807 807 806 806 805 805 806 807 808 809 810 813 816 816 813 810 812 818 819 817 820 823 825 826 820 820 821 820 821 820 822 827 829 833 837 836 835 835 834 834 834 834 837 838 841
831 830 830 829 829 828 828 827 826 825 824 823 822 821 820 819 819 818 818 817 817 816 816 816 815 814 813 812 812 812 813 814 815 814 813 812 811 810 810 809 808 808 807 806 806 805 806 805 805 807 806 809 808 810 816 816 813 813 811 812 819 821 819 822 825 826 825 823 824 823 820 822 824 826 829 833 838 839 838 837 836 835 835 836 837 840 841 844
830 830 830 829 829 828 827 826 825 824 823 822 821 820 819 818 818 817 817 816 816 816 816 815 815 814 813 812 812 813 814 815 815 814 813 812 811 810 809 809 808 807 806 805 805 804 805 804 805 805 805 809 809 811 817 814 811 812 812 814 817 818 820 824 824 824 825 824 824 821 820 825 831 830 829 837 841 840 840 839 838 837 837 839 840 842 844 845
831 830 829 829 828 827 827 826 825 824 822 821 820 819 818 817 816 816 815 815 815 815 815 814 814 813 813 812 811 813 815 815 814 814 813 811 810 810 809 808 807 807 806 805 805 804 804 803 804 804 805 808 810 813 816 813 812 813 815 817 817 818 822 824 822 824 825 824 823 820 820 827 832 830 828 837 843 842 842 841 841 840 841 843 844 846 847 848
831 830 829 829 828 827 826 825 824 823 822 821 819 818 817 816 815 814 814 814 814 814 814 813 813 813 812 811 811 814 815 814 814 813 812 811 810 809 809 808 807 807 806 805 805 804 803 803 804 804 805 806 809 815 817 815 815 816 817 816 818 820 821 822 822 823 823 822 824 822 823 828 829 830 834 841 846 844 843 844 845 844 846 848 848 849 851 852
831 830 829 829 828 827 826 824 823 822 821 820 818 817 816 815 814 813 813 813 813 813 813 813 812 812 812 811 812 814 815 814 814 813 812 811 810 809 808 808 807 807 806 805 805 804 804 804 803 804 806 806 808 814 815 816 818 818 818 813 814 816 816 819 821 823 822 819 824 823 822 826 829 835 842 846 846 845 845 847 848 848 850 851 852 853 854 857
831 830 829 829 828 827 825 824 823 821 820 819 817 816 814 813 812 812 812 812 812 812 812 812 811 811 811 812 814 815 814 814 814 813 812 811 810 809 808 807 807 806 806 805 805 804 804 804 804 806 808 807 809 813 814 817 819 817 818 814 811 810 810 818 821 823 823 820 826 824 814 818 831 839 844 846 846 845 846 849 851 852 853 855 856 857 859 861
830 830 829 828 827 826 825 824 822 821 819 818 816 814 812 812 811 811 811 811 811 811 811 811 811 810 811 814 815 814 815 815 814 813 812 811 809 808 808 808 806 806 806 805 805 805 804 805 806 806 810 811 812 815 814 816 817 815 817 816 812 808 807 818 824 822 820 821 826 823 809 813 831 840 845 848 847 845 847 852 853 854 856 858 860 861 863 866
830 830 829 828 827 825 824 823 822 821 819 817 815 813 812 811 811 811 811 811 811 811 811 811 810 810 811 814 815 815 814 814 814 813 812 811 809 809 808 807 806 806 806 806 805 805 805 806 805 806 812 815 814 813 811 812 814 814 813 810 810 809 806 816 826 824 820 820 824 821 810 814 833 844 847 849 847 846 849 854 855 857 859 860 863 864 866 869
830 829 828 827 826 825 824 822 821 820 818 816 814 813 812 812 812 811 811 810 810 810 810 810 810 809 811 815 815 814 815 814 814 814 812 811 810 809 808 807 807 807 806 807 807 807 806 807 810 812 813 813 811 808 808 809 809 812 812 805 806 810 805 810 823 827 825 820 820 818 812 818 836 847 849 850 848 847 850 855 858 859 861 863 865 867 869 871
830 829 828 827 826 825 823 822 821 819 818 816 814 813 812 812 812 811 811 810 810 810 810 810 810 809 812 815 815 815 816 816 815 814 813 811 809 809 808 808 808 807 807 808 807 808 807 808 813 813 810 812 811 808 810 808 802 806 811 806 808 813 809 808 816 826 827 821 819 817 817 831 844 849 852 852 850 849 852 856 859 861 863 866 867 869 871 874
830 829 828 827 826 824 823 822 820 819 818 816 814 813 813 813 812 812 811 810 810 810 809 810 809 812 817 817 818 819 817 816 815 814 813 810 809 808 808 809 809 808 808 808 809 808 807 809 812 809 808 812 810 808 809 808 804 805 809 807 808 814 815 811 812 823 827 820 818 816 821 840 849 851 854 854 853 852 856 859 861 864 866 868 870 872 875 876
829 829 828 827 826 824 823 822 820 819 818 816 814 813 813 813 812 812 812 811 812 813 815 817 817 820 822 821 822 821 817 816 815 814 813 811 809 808 808 808 809 809 809 809 808 809 810 809 811 808 807 810 811 811 809 810 812 811 812 812 810 812 811 811 816 828 830 820 819 821 826 841 850 853 857 857 857 857 859 863 864 867 869 871 873 875 878 880
829 828 827 827 825 824 823 821 820 819 818 816 815 813 814 816 816 815 816 817 821 823 824 825 825 824 823 823 823 820 816 816 815 815 813 810 809 808 808 808 809 808 810 812 809 813 815 809 809 811 812 816 819 821 819 818 818 815 815 814 813 813 808 812 820 830 833 822 824 832 835 846 854 857 861 859 860 862 863 866 868 871 872 874 877 879 882 883
829 829 828 827 826 824 823 822 821 819 818 817 814 815 819 822 821 820 822 825 827 828 827 827 827 825 824 825 824 822 819 815 814 815 813 811 809 807 807 808 808 807 813 820 815 815 815 808 812 819 824 828 829 830 827 823 821 817 815 813 813 812 810 819 825 830 833 823 827 838 840 852 860 860 864 863 863 866 867 869 871 874 876 877 880 882 884 886
830 829 828 827 826 825 823 822 821 820 819 817 816 818 822 823 823 823 824 824 826 828 827 827 827 826 825 825 824 823 821 818 815 813 814 812 808 808 810 809 809 811 816 819 814 812 811 811 820 829 834 834 832 832 827 821 821 817 815 815 812 811 812 821 828 831 830 821 825 836 839 854 864 864 867 867 868 871 870 872 874 875 878 880 882 884 885 887
830 829 828 827 826 824 823 822 821 820 819 818 819 821 823 823 824 824 823 822 824 827 827 826 826 826 825 824 825 823 822 823 821 816 816 813 811 815 815 812 814 816 816 814 811 809 809 815 828 836 837 834 828 828 825 820 818 814 815 813 810 814 814 814 821 828 831 826 826 831 838 855 863 864 870 871 871 874 874 875 877 877 880 881 883 885 886 888
830 829 828 827 826 824 822 822 821 820 820 820 821 822 823 823 823 823 824 826 827 826 827 828 827 827 826 825 826 824 823 827 825 821 820 818 817 819 818 820 819 815 818 821 817 813 815 825 837 839 836 832 824 823 823 816 811 813 818 814 810 817 817 814 820 824 828 830 831 828 828 843 857 859 868 873 872 875 877 878 880 881 883 884 885 886 887 889
830 828 827 826 825 823 822 821 821 821 822 822 822 823 824 823 824 823 823 827 828 826 826 828 828 827 827 827 826 826 826 826 826 825 824 823 822 820 821 825 821 815 821 827 820 815 821 835 841 834 830 830 823 820 823 820 811 811 820 823 821 822 821 821 823 820 815 816 829 829 811 823 853 861 864 871 873 875 878 879 881 884 885 886 887 888 890 890
829 828 827 826 824 823 822 821 822 822 822 823 823 824 823 823 824 823 822 827 829 829 828 827 828 828 827 828 827 828 826 824 826 827 825 825 825 824 822 823 822 820 825 827 822 821 827 838 840 831 827 826 822 820 828 829 814 808 825 834 830 828 826 824 824 821 810 807 825 831 811 813 842 859 865 869 872 876 878 880 883 885 886 887 888 889 890 891
828 828 827 825 824 823 821 822 823 822 822 824 824 823 823 823 823 822 824 830 834 835 834 829 829 830 829 831 830 827 827 826 825 826 828 826 826 826 821 821 822 824 831 828 819 825 832 832 833 830 825 821 818 820 831 834 818 815 835 840 832 831 828 826 825 820 815 815 822 826 820 813 822 850 868 866 869 875 877 880 883 885 886 887 888 890 891 891
828 827 826 824 824 822 822 823 823 823 823 824 824 823 823 823 823 822 824 836 842 838 836 833 830 831 831 832 831 830 832 832 827 825 828 827 826 825 821 825 827 826 834 828 814 827 836 831 831 831 823 819 822 828 837 837 824 826 842 841 836 835 831 830 826 820 824 823 813 817 827 814 813 850 871 864 866 871 873 879 881 884 887 887 889 890 891 892
828 827 826 825 824 823 823 823 823 824 824 824 824 823 823 822 823 822 825 839 844 838 839 835 830 834 836 833 833 835 836 836 834 830 828 828 826 825 824 829 830 827 832 826 819 830 838 838 840 835 825 824 830 838 843 839 829 836 846 841 839 838 834 832 825 823 829 823 812 819 829 814 812 846 864 859 862 863 867 876 880 883 886 887 889 890 891 893
827 826 826 825 824 823 823 823 823 824 823 823 823 823 824 823 823 827 834 843 844 841 841 837 837 844 843 836 833 837 838 838 841 836 830 830 827 826 830 833 830 826 827 826 827 836 842 843 844 840 836 837 839 843 848 845 838 842 841 832 832 832 832 831 827 828 824 814 819 830 834 821 814 835 851 856 865 865 865 873 879 883 886 887 889 890 892 892
827 827 826 825 824 824 823 824 823 823 823 823 823 823 823 823 825 833 843 847 845 844 842 843 849 850 850 848 842 841 842 841 843 839 832 834 831 827 830 831 830 823 818 821 826 833 838 837 839 844 846 845 841 839 845 848 845 841 831 822 820 819 823 822 821 826 813 807 826 837 838 829 816 831 852 859 870 874 870 871 876 882 884 887 889 889 891 892
827 827 826 825 825 824 824 824 823 823 823 822 823 823 823 825 833 844 850 846 846 850 851 853 855 853 856 857 850 850 850 843 844 846 845 842 840 844 844 843 843 830 821 827 828 825 828 833 839 845 847 847 840 828 830 838 836 829 821 818 814 809 815 813 810 816 809 812 834 840 836 829 825 848 867 866 872 876 873 871 873 879 883 886 889 889 891 892
827 827 827 826 825 825 824 824 823 823 822 822 824 822 822 828 843 858 858 849 851 859 861 861 859 859 859 850 848 856 855 847 845 848 851 847 844 852 855 855 855 843 833 836 833 826 826 831 837 838 839 846 840 825 822 826 825 822 821 822 817 815 824 823 815 817 815 819 836 845 840 828 830 860 878 874 877 879 877 874 874 879 883 885 888 889 890 891
827 827 827 826 825 825 824 823 822 822 822 822 822 821 825 837 853 865 860 855 861 864 865 867 863 858 855 850 854 860 852 847 850 848 846 844 842 847 850 853 856 852 844 839 842 844 834 826 832 835 836 842 841 837 837 833 828 830 833 828 821 821 829 828 819 819 824 826 833 843 842 828 831 861 881 881 882 881 879 880 881 882 884 886 888 889 889 890
827 827 827 826 825 824 823 822 822 822 822 821 822 826 836 850 861 864 862 863 867 865 865 869 863 851 848 852 861 865 855 848 851 849 846 846 848 851 854 856 859 858 850 842 849 854 836 827 838 846 846 846 844 848 851 841 830 835 838 829 825 829 831 832 834 841 846 840 834 836 839 843 856 874 883 882 882 884 883 882 884 885 886 887 888 888 889 889
827 827 827 827 826 824 822 822 821 822 822 820 825 840 854 861 865 866 868 870 871 872 866 861 858 850 847 851 854 860 860 855 851 848 848 854 857 858 861 863 866 865 857 850 853 852 837 830 839 847 848 850 851 851 852 845 834 832 832 829 836 845 838 834 843 855 857 843 834 833 834 846 863 873 880 883 882 884 885 883 884 885 887 887 886 888 888 888
827 827 827 827 826 824 823 822 821 821 822 820 832 855 867 870 872 874 876 876 877 879 867 854 857 859 857 855 850 853 857 854 852 847 846 854 858 860 864 866 869 871 867 863 857 856 851 837 835 844 843 847 858 856 850 852 845 833 831 836 845 849 843 837 839 842 842 834 830 838 844 844 845 856 874 881 879 882 884 884 886 886 886 886 886 887 887 887
827 827 827 827 826 825 823 822 822 822 822 830 848 866 872 873 878 880 881 881 879 877 866 857 861 865 865 861 854 858 859 850 848 849 848 851 854 863 867 865 869 872 874 872 859 858 862 844 834 846 846 846 855 851 842 848 850 841 839 843 844 841 835 836 839 839 841 840 836 846 860 854 844 853 867 869 870 877 881 883 886 885 885 885 885 886 887 887
826 827 828 829 827 826 825 823 824 822 824 840 859 868 872 876 880 884 885 883 880 873 866 867 870 867 866 866 860 864 866 857 854 854 852 852 854 864 871 868 869 871 873 875 863 860 864 851 838 843 848 847 844 840 837 840 845 844 843 843 844 844 842 843 847 846 844 843 842 848 851 847 852 863 865 864 868 871 875 881 883 882 883 885 885 886 886 886
827 827 829 830 827 827 827 823 823 828 837 856 867 869 875 877 879 886 890 886 879 873 869 872 875 868 865 869 867 868 870 866 864 859 855 857 857 863 875 877 873 872 873 874 869 865 862 856 845 837 841 843 839 842 847 845 844 843 841 844 846 849 853 852 853 858 853 843 845 852 845 843 862 873 868 869 871 870 874 878 880 882 884 885 886 886 886 886
827 828 830 830 828 828 826 825 839 852 858 867 872 873 878 878 877 884 889 888 882 878 876 875 874 870 868 868 868 872 872 867 867 864 858 860 859 860 877 886 883 879 874 867 868 869 863 858 854 843 837 837 842 856 863 859 855 849 845 851 853 853 854 850 852 866 868 855 852 856 848 848 867 876 873 874 875 874 877 878 880 884 885 885 886 886 886 885
828 832 834 831 829 828 826 837 861 870 864 868 874 876 879 879 878 879 883 886 882 879 879 877 875 875 874 870 869 874 874 866 865 864 860 864 864 865 882 895 895 889 879 868 870 877 871 864 862 852 842 844 854 865 870 868 864 856 853 858 859 858 856 850 849 858 866 866 865 862 854 857 872 878 877 878 878 879 881 881 884 885 884 886 886 885 885 885
832 835 835 832 830 829 830 845 865 870 869 877 881 881 882 880 878 877 879 881 879 878 876 875 877 876 874 876 875 873 872 868 864 863 864 867 870 878 890 897 896 889 880 872 873 878 874 867 863 852 841 846 858 864 868 870 864 856 859 867 868 868 869 864 862 863 862 861 861 858 853 858 872 879 879 881 882 882 884 885 886 886 885 885 885 884 885 885
837 837 836 834 829 827 834 847 858 866 874 878 876 877 881 881 878 876 876 877 879 879 874 873 877 876 876 881 879 874 873 867 863 866 869 869 873 886 895 896 893 885 877 876 877 877 870 862 862 856 844 845 850 852 857 860 858 855 863 877 884 884 882 878 877 873 863 858 859 855 848 853 871 880 879 881 884 883 884 886 886 886 885 884 884 884 884 885
837 838 839 838 832 833 845 857 857 861 871 871 870 875 877 878 881 882 880 880 883 883 876 874 879 880 880 882 879 877 877 869 864 869 874 873 876 886 892 893 892 885 883 887 885 880 873 865 862 858 854 853 851 851 854 855 857 860 867 880 887 886 882 875 870 863 858 864 868 856 847 854 870 879 879 882 884 884 884 885 884 885 884 884 884 883 883 885
836 839 843 843 842 845 858 868 863 860 866 866 867 876 877 872 879 886 884 880 883 885 881 878 881 880 878 877 874 873 875 875 873 873 874 873 874 882 889 891 890 886 886 889 888 883 877 872 870 864 859 859 855 854 861 864 863 861 866 877 884 887 889 878 864 858 861 869 865 857 862 867 867 872 879 883 884 885 884 884 884 884 883 883 882 882 883 885
838 847 854 850 848 852 859 867 867 864 867 867 868 877 878 873 875 880 881 881 882 885 882 879 880 876 873 875 874 872 874 876 877 877 879 879 878 882 888 889 887 886 886 887 887 883 873 869 879 880 870 864 860 860 868 873 870 866 871 878 881 887 891 879 867 866 871 870 860 860 877 879 865 869 880 883 885 886 884 884 884 883 882 882 881 881 883 884
844 854 863 857 854 859 861 865 871 872 870 871 876 881 878 874 875 874 876 880 882 883 878 873 877 879 879 881 877 873 873 873 873 877 881 886 884 880 881 883 883 883 883 882 883 883 871 868 885 891 876 867 869 870 873 874 872 873 879 880 880 886 886 878 876 879 878 872 864 863 875 875 867 872 882 884 886 886 884 884 883 882 881 880 880 882 883 883
850 855 864 862 862 870 874 874 876 872 870 873 877 880 878 874 875 877 881 879 875 879 877 869 872 880 884 886 880 875 876 874 874 879 882 886 887 882 879 879 880 881 881 879 885 888 876 870 887 896 879 868 874 878 878 876 874 879 884 882 882 885 884 882 883 884 882 877 870 869 873 873 871 877 883 885 885 884 884 882 881 880 880 878 879 881 882 882
847 848 857 861 866 876 880 880 875 867 869 874 872 877 883 877 874 880 885 879 870 873 878 873 874 881 886 887 882 877 879 879 878 881 886 887 886 885 884 881 881 883 880 881 887 887 876 874 890 895 875 864 875 881 878 876 876 879 883 883 885 885 884 886 886 885 886 880 873 876 878 873 874 882 885 883 883 883 882 880 880 879 878 878 879 881 882 882
844 846 850 851 863 877 877 877 876 865 866 873 872 877 882 877 879 883 882 882 878 875 878 879 879 882 886 887 883 879 881 884 882 882 886 887 885 885 885 885 887 886 882 887 891 886 879 879 888 887 867 858 870 874 872 876 880 881 880 881 883 881 879 882 882 880 883 880 878 880 877 871 875 883 883 880 881 881 880 880 879 878 877 878 880 881 882 883
845 848 848 847 861 878 877 874 873 866 869 879 880 880 879 878 886 886 875 878 885 883 883 885 883 882 880 880 881 882 884 886 886 886 888 888 887 888 888 888 890 888 886 892 897 898 894 883 881 885 871 858 864 869 872 877 872 870 877 881 881 882 880 880 879 877 878 880 880 877 872 873 880 882 881 879 880 881 881 880 878 877 878 879 881 882 883 883